1532498400.63,51780,19.19,73946.8,13.25,-19.65,-20.79,0,*44
1532498401.84,51781,19.19,73944.5,13.25,-17.83,-18.65,0,*45
1532498403.05,51782,19.19,73944.8,13.25,-17.73,-18.59,0,*46
1532498404.32,51783,19.19,73946.0,13.25,-17.41,-18.35,0,*4C
1532498405.55,51784,19.19,73942.5,13.25,-17.45,-18.45,0,*48
1532498406.78,51785,19.19,73946.5,13.25,-17.55,-18.49,0,*44
1532498408.04,51786,19.19,73946.5,13.25,-17.41,-18.35,0,*49
1532498409.29,51787,19.19,73942.8,13.27,-17.21,-18.11,0,*4A
1532498410.52,51788,19.19,73946.0,13.29,-17.21,-18.25,0,*4C
1532498411.8,51789,19.19,73942.3,13.27,-17.41,-18.31,0,*40
1532498413.06,51790,19.19,73940.0,13.27,-17.25,-18.11,0,*48
1532498414.32,51791,19.19,73944.3,13.29,-17.03,-17.97,0,*42
1532498415.52,51792,19.19,73946.8,13.29,-17.73,-18.69,0,*48
1532498416.75,51793,19.19,73942.0,13.29,-17.55,-18.45,0,*43
1532498417.99,51794,19.19,73946.5,13.29,-17.07,-18.07,0,*45
1532498419.22,51795,19.19,73948.0,13.29,-17.17,-18.21,0,*41
1532498420.5,51796,19.19,73944.8,13.31,-17.03,-18.01,0,*4C
1532498421.73,51797,19.19,73950.3,13.33,-16.41,-17.45,0,*47
1532498422.94,51798,19.19,73950.5,13.33,-16.93,-17.83,0,*4D
1532498424.19,51799,19.19,73946.0,13.35,-16.89,-17.79,0,*44
1532498425.42,51800,19.19,73946.0,13.33,-16.37,-17.11,0,*46
1532498426.66,51801,19.19,73942.8,13.35,-17.25,-18.25,0,*4B
1532498427.91,51802,19.19,73944.3,13.35,-16.45,-17.41,0,*42
1532498429.15,51803,19.19,73948.0,13.41,-16.55,-17.59,0,*48
1532498430.37,51804,19.19,73950.0,13.41,-17.63,-18.65,0,*4B
1532498431.62,51805,19.19,73944.0,13.37,-17.21,-18.01,0,*4F
1532498432.86,51806,19.19,73940.8,13.41,-17.03,-18.07,0,*4B
1532498434.11,51807,19.19,73948.5,13.41,-16.69,-17.59,0,*43
1532498435.32,51808,19.19,73944.5,13.41,-16.75,-17.73,0,*49
1532498436.58,51809,19.19,73950.0,13.41,-17.03,-17.97,0,*42
1532498437.81,51810,19.19,73944.5,13.45,-16.41,-17.25,0,*40
1532498439.03,51811,19.19,73940.3,13.43,-16.89,-17.73,0,*40
1532498440.28,51812,19.19,73944.0,13.47,-17.83,-18.93,0,*4D
1532498441.54,51813,19.19,73950.3,13.45,-17.55,-18.35,0,*49
1532498442.77,51814,19.19,73950.3,13.45,-17.41,-18.45,0,*4C
1532498444.02,51815,19.19,73948.5,13.43,-16.83,-17.79,0,*44
1532498445.24,51816,19.19,73948.5,13.45,-16.89,-17.79,0,*4B
1532498446.5,51817,19.19,73944.8,13.45,-17.25,-18.31,0,*4E
1532498447.73,51818,19.19,73946.8,13.45,-17.59,-18.65,0,*4B
1532498448.98,51819,19.19,73946.5,13.43,-17.45,-18.45,0,*43
1532498450.2,51820,19.19,73948.5,13.45,-17.11,-18.17,0,*49
1532498451.45,51821,19.19,73948.0,13.47,-17.25,-18.25,0,*4C
1532498452.71,51822,19.19,73950.3,13.47,-17.63,-18.59,0,*46
1532498454.0,51823,19.19,73944.5,13.47,-17.25,-18.31,0,*4B
1532498455.28,51824,19.19,73944.0,13.47,-17.07,-18.01,0,*4F
1532498456.51,51825,19.19,73944.5,13.47,-16.97,-17.87,0,*47
1532498457.73,51826,19.19,73946.8,13.49,-16.93,-17.79,0,*4F
1532498458.96,51827,19.19,73944.5,13.49,-17.07,-18.07,0,*44
1532498460.16,51828,19.19,73946.8,13.49,-16.79,-17.69,0,*44
1532498461.38,51829,19.19,73946.3,13.49,-16.31,-17.31,0,*44
1532498462.61,51830,19.19,73948.8,13.49,-17.49,-18.55,0,*4F
1532498463.86,51831,19.19,73948.0,13.51,-16.59,-17.63,0,*4D
1532498465.09,51832,19.19,73944.0,13.51,-16.45,-17.35,0,*40
1532498466.34,51833,19.19,73944.0,13.53,-16.27,-17.17,0,*47
1532498467.57,51834,19.19,73946.8,13.53,-16.75,-17.55,0,*41
1532498468.83,51835,19.19,73946.5,13.53,-17.41,-18.31,0,*4B
1532498470.09,51836,19.19,73950.3,13.55,-16.59,-17.41,0,*4E
1532498471.32,51837,19.19,73948.0,13.55,-16.93,-17.83,0,*47
1532498472.59,51838,19.19,73950.5,13.55,-18.59,-19.81,0,*4C
1532498473.81,51839,19.19,73948.5,13.55,-18.11,-19.07,0,*4F
1532498475.07,51840,19.19,73944.0,13.55,-17.25,-18.11,0,*4F
1532498476.29,51841,19.19,73944.0,13.55,-16.93,-17.69,0,*42
1532498477.55,51842,19.19,73946.8,13.55,-16.83,-17.59,0,*43
1532498478.78,51843,19.19,73944.3,13.57,-17.49,-18.45,0,*45
1532498480.02,51844,19.19,73944.0,13.57,-16.93,-17.83,0,*41
1532498481.28,51845,19.19,73944.8,13.57,-17.07,-17.87,0,*48
1532498482.55,51846,19.19,73944.0,13.57,-17.21,-18.11,0,*4F
1532498483.75,51847,19.19,73944.8,13.59,-16.75,-17.49,0,*42
1532498484.96,51848,19.19,73948.5,13.59,-17.35,-18.21,0,*49
1532498486.19,51849,19.19,73946.8,13.59,-16.75,-17.55,0,*41
1532498487.42,51850,19.19,73946.0,13.59,-17.93,-18.99,0,*4F
1532498488.68,51851,19.19,73944.3,13.59,-17.03,-17.97,0,*46
1532498489.93,51852,19.19,73942.5,13.59,-17.07,-17.93,0,*45
1532498491.19,51853,19.19,73944.3,13.59,-17.03,-17.93,0,*40
1532498492.44,51854,19.19,73940.8,13.63,-17.03,-17.93,0,*4E
1532498493.65,51855,19.19,73942.0,13.59,-17.49,-18.49,0,*40
1532498494.86,51856,19.19,73944.5,13.59,-16.55,-17.35,0,*4B
1532498496.13,51857,19.19,73944.3,13.63,-17.17,-18.31,0,*4F
1532498497.33,51858,19.19,73942.3,13.63,-18.17,-19.13,0,*4E
1532498498.57,51859,19.19,73944.3,13.59,-17.93,-18.73,0,*42
1532498499.82,51860,19.19,73944.8,13.63,-17.93,-18.93,0,*4F
1532498501.06,51861,19.19,73946.0,13.59,-17.07,-17.83,0,*44
1532498502.3,51862,19.19,73946.8,13.63,-17.03,-17.87,0,*4E
1532498503.53,51863,19.19,73940.8,13.59,-16.79,-17.45,0,*44
1532498504.76,51864,19.19,73944.5,13.63,-17.41,-18.17,0,*48
1532498506.03,51865,19.19,73944.5,13.59,-16.17,-17.07,0,*4C
1532498507.25,51866,19.19,73948.8,13.63,-15.99,-16.69,0,*4A
1532498508.48,51867,19.19,73944.0,13.65,-15.63,-16.89,0,*46
1532498509.71,51868,19.19,73942.0,13.67,-16.23,-17.69,0,*43
1532498510.97,51869,19.19,73940.8,13.67,-16.23,-17.45,0,*4C
1532498512.23,51870,19.19,73940.3,13.67,-16.17,-17.25,0,*45
1532498513.52,51871,19.19,73940.0,13.69,-16.65,-17.59,0,*44
1532498514.8,51872,19.19,73944.3,13.69,-16.65,-17.55,0,*4B
1532498516.03,51873,19.19,73942.3,13.71,-16.45,-17.41,0,*44
1532498517.27,51874,19.19,73940.8,13.69,-16.89,-17.83,0,*44
1532498518.52,51875,19.19,73940.8,13.71,-17.07,-17.93,0,*4A
1532498519.75,51876,19.19,73938.3,13.69,-16.41,-17.31,0,*4B
1532498520.98,51877,19.19,73938.3,13.71,-17.21,-17.49,0,*4B
1532498522.19,51878,19.19,73938.8,13.71,-15.15,-15.25,0,*49
1532498523.41,51879,19.19,73938.8,13.71,-15.85,-17.31,0,*46
1532498524.61,51880,19.19,73942.0,13.71,-16.93,-18.41,0,*4C
1532498525.84,51881,19.19,73938.8,13.71,-16.75,-17.79,0,*41
1532498527.03,51882,19.19,73938.8,13.71,-17.73,-18.83,0,*4F
1532498528.29,51883,19.19,73938.0,13.69,-18.69,-19.65,0,*4A
1532498529.49,51884,19.19,73940.3,13.71,-17.31,-18.21,0,*47
1532498530.75,51885,19.19,73936.0,13.69,-17.97,-18.99,0,*40
1532498531.98,51886,19.19,73938.5,13.69,-17.69,-18.69,0,*4D
1532498533.26,51887,19.19,73942.5,13.69,-17.03,-17.97,0,*4E
1532498534.52,51888,19.19,73940.3,13.69,-17.17,-18.25,0,*42
1532498535.78,51889,19.19,73942.0,13.69,-17.03,-17.83,0,*45
1532498537.07,51890,19.19,73938.8,13.69,-17.17,-17.97,0,*4D
1532498538.27,51891,19.19,73938.8,13.71,-17.73,-18.69,0,*49
1532498539.53,51892,19.19,73942.3,13.69,-17.49,-18.35,0,*43
1532498540.78,51893,19.19,73940.5,13.69,-17.55,-18.99,0,*49
1532498542.0,51894,19.19,73936.8,13.71,-17.79,-18.69,0,*46
1532498543.25,51895,19.19,73936.8,13.71,-17.03,-17.79,0,*44
1532498544.48,51896,19.19,73936.8,13.69,-16.45,-17.31,0,*41
1532498545.7,51897,19.19,73940.0,13.71,-17.49,-18.59,0,*45
1532498546.96,51898,19.19,73942.0,13.69,-17.21,-18.07,0,*46
1532498548.22,51899,19.19,73942.8,13.71,-17.03,-17.97,0,*48
1532498549.48,51900,19.19,73940.3,13.69,-17.97,-18.69,0,*43
1532498550.76,51901,19.19,73942.8,13.69,-16.31,-17.41,0,*4A
1532498552.01,51902,19.19,73940.5,13.69,-16.27,-17.49,0,*46
1532498553.26,51903,19.19,73940.0,13.69,-16.31,-17.31,0,*4F
1532498554.49,51904,19.19,73938.5,13.71,-16.03,-17.17,0,*44
1532498555.72,51905,19.19,73940.5,13.71,-16.41,-17.21,0,*46
1532498556.98,51906,19.19,73946.3,13.73,-16.37,-17.25,0,*42
1532498558.24,51907,19.19,73940.0,13.73,-16.37,-17.11,0,*44
1532498559.5,51908,19.19,73946.8,13.75,-16.23,-17.11,0,*48
1532498560.76,51909,19.19,73942.0,13.77,-17.45,-18.45,0,*44
1532498562.02,51910,19.19,73936.3,13.77,-17.45,-18.25,0,*4A
1532498563.28,51911,19.19,73938.3,13.75,-16.65,-17.55,0,*42
1532498564.52,51912,19.19,73942.3,13.75,-16.55,-17.55,0,*42
1532498565.75,51913,19.19,73938.0,13.77,-16.41,-17.31,0,*46
1532498566.98,51914,19.19,73942.3,13.77,-16.83,-17.73,0,*49
1532498568.18,51915,19.19,73940.0,13.79,-16.59,-17.49,0,*48
1532498569.44,51916,19.19,73940.3,13.77,-17.25,-18.25,0,*4A
1532498570.72,51917,19.19,73936.5,13.77,-17.21,-17.97,0,*49
1532498571.96,51918,19.19,73940.0,13.79,-16.51,-17.35,0,*46
1532498573.19,51919,19.19,73938.3,13.79,-16.59,-17.41,0,*4C
1532498574.42,51920,19.19,73940.0,13.81,-16.79,-17.69,0,*49
1532498575.68,51921,19.19,73940.3,13.81,-16.75,-17.63,0,*4E
1532498576.89,51922,19.19,73940.5,13.79,-16.59,-17.49,0,*4C
1532498578.14,51923,19.19,73940.3,13.79,-16.31,-17.21,0,*4D
1532498579.39,51924,19.13,73936.5,13.81,-16.79,-17.55,0,*42
1532498580.67,51925,19.19,73942.5,13.81,-17.03,-17.93,0,*45
1532498581.93,51926,19.19,73938.3,13.85,-17.21,-18.07,0,*40
1532498583.18,51927,19.19,73942.8,13.81,-17.25,-18.25,0,*41
1532498584.42,51928,19.13,73934.5,13.81,-17.69,-18.59,0,*4D
1532498585.7,51929,19.19,73940.0,13.81,-17.07,-17.41,0,*42
1532498586.96,51930,19.13,73940.8,13.81,-17.41,-18.41,0,*47
1532498588.2,51931,19.19,73938.8,13.77,-16.79,-17.87,0,*40
1532498589.42,51932,19.19,73942.8,13.79,-17.25,-18.83,0,*4E
1532498590.65,51933,19.19,73942.3,13.79,-17.25,-18.41,0,*41
1532498591.85,51934,19.13,73944.3,13.79,-17.69,-18.83,0,*40
1532498593.08,51935,19.19,73940.8,13.79,-17.59,-18.69,0,*46
1532498594.36,51936,19.19,73936.5,13.77,-17.97,-19.27,0,*42
1532498595.57,51937,19.19,73938.0,13.79,-17.83,-19.17,0,*4B
1532498596.85,51938,19.19,73938.5,13.77,-17.45,-18.89,0,*46
1532498598.12,51939,19.13,73938.3,13.77,-17.11,-18.59,0,*4B
1532498599.36,51940,19.19,73940.8,13.77,-16.79,-17.83,0,*42
1532498600.62,51941,19.13,73942.0,13.77,-17.45,-18.49,0,*44
1532498601.85,51942,19.19,73942.3,13.75,-17.11,-18.17,0,*4F
1532498603.11,51943,19.19,73938.0,13.75,-16.23,-17.07,0,*40
1532498604.34,51944,19.13,73942.5,13.75,-16.31,-17.73,0,*47
1532498605.55,51945,19.13,73940.5,13.75,-16.97,-17.87,0,*41
1532498606.79,51946,19.19,73938.3,13.75,-17.31,-18.31,0,*4D
1532498607.99,51947,19.13,73942.3,13.79,-17.83,-18.83,0,*40
1532498609.26,51948,19.19,73944.3,13.77,-17.59,-18.59,0,*41
1532498610.48,51949,19.19,73944.0,13.75,-16.83,-17.83,0,*4C
1532498611.73,51950,19.13,73940.3,13.77,-17.55,-18.49,0,*45
1532498612.96,51951,19.13,73942.0,13.77,-17.31,-18.17,0,*4D
1532498614.21,51952,19.19,73940.5,13.77,-17.11,-18.11,0,*4A
1532498615.49,51953,19.13,73940.0,13.77,-17.45,-18.59,0,*46
1532498616.72,51954,19.13,73940.8,13.77,-16.93,-17.73,0,*4C
1532498617.95,51955,19.13,73940.8,13.77,-16.83,-17.69,0,*47
1532498619.18,51956,19.13,73942.3,13.77,-16.93,-17.73,0,*4E
1532498620.41,51957,19.19,73946.0,13.79,-17.97,-19.13,0,*4C
1532498621.65,51958,19.13,73946.0,13.79,-16.65,-17.49,0,*4E
1532498622.86,51959,19.19,73946.3,13.79,-16.79,-17.83,0,*44
1532498624.09,51960,19.13,73942.0,13.79,-17.03,-17.83,0,*42
1532498625.36,51961,19.19,73942.3,13.79,-17.17,-17.97,0,*43
1532498626.62,51962,19.13,73942.8,13.79,-16.65,-17.55,0,*4A
1532498627.87,51963,19.19,73944.0,13.85,-16.83,-17.63,0,*45
1532498629.12,51964,19.13,73942.8,13.81,-16.93,-17.79,0,*4C
1532498630.38,51965,19.19,73944.3,13.85,-17.17,-18.17,0,*43
1532498631.63,51966,19.13,73942.5,13.81,-16.93,-17.79,0,*4E
1532498632.89,51967,19.19,73940.8,13.85,-17.17,-17.73,0,*4C
1532498634.14,51968,19.13,73938.8,13.81,-16.93,-17.21,0,*4D
1532498635.42,51969,19.13,73940.0,13.85,-15.57,-16.27,0,*44
1532498636.7,51970,19.13,73940.5,13.85,-16.09,-17.17,0,*46
1532498637.96,51971,19.13,73940.3,13.85,-17.21,-18.21,0,*46
1532498639.22,51972,19.13,73938.5,13.85,-17.45,-18.41,0,*41
1532498640.47,51973,19.13,73942.0,13.85,-17.49,-18.35,0,*4F
1532498641.73,51974,19.13,73942.8,13.85,-16.89,-17.79,0,*42
1532498642.98,51975,19.13,73940.5,13.85,-17.59,-18.41,0,*4B
1532498644.23,51976,19.13,73944.3,13.81,-17.63,-18.73,0,*44
1532498645.49,51977,19.13,73944.0,13.85,-18.01,-19.13,0,*4D
1532498646.77,51978,19.13,73942.8,13.85,-17.03,-17.93,0,*49
1532498648.03,51979,19.13,73946.8,13.85,-16.75,-17.59,0,*4E
1532498649.27,51980,19.19,73944.5,13.85,-16.45,-17.35,0,*41
1532498650.55,51981,19.13,73940.0,13.85,-17.03,-17.79,0,*4B
1532498651.8,51982,19.13,73936.5,13.87,-17.21,-18.01,0,*4A
1532498653.01,51983,19.13,73942.3,13.87,-18.45,-19.37,0,*42
1532498654.26,51984,19.13,73940.5,13.87,-17.11,-18.01,0,*4F
1532498655.48,51985,19.13,73938.0,13.87,-17.55,-18.45,0,*4E
1532498656.74,51986,19.13,73940.3,13.87,-16.51,-17.41,0,*43
1532498657.97,51987,19.13,73942.8,13.89,-17.41,-18.45,0,*47
1532498659.23,51988,19.13,73940.5,13.87,-17.45,-18.35,0,*45
1532498660.43,51989,19.13,73940.3,13.89,-16.93,-17.69,0,*46
1532498661.64,51990,19.19,73946.5,13.89,-16.79,-17.69,0,*4A
1532498662.87,51991,19.13,73944.3,13.87,-17.55,-18.49,0,*47
1532498664.1,51992,19.13,73940.0,13.89,-16.65,-17.49,0,*47
1532498665.36,51993,19.13,73946.8,13.91,-16.59,-17.63,0,*48
1532498666.64,51994,19.13,73940.0,13.91,-17.25,-18.31,0,*4D
1532498667.9,51995,19.13,73946.5,13.91,-16.89,-17.63,0,*43
1532498669.13,51996,19.13,73946.5,13.91,-16.75,-17.49,0,*4B
1532498670.38,51997,19.13,73940.8,13.91,-16.93,-17.79,0,*41
1532498671.61,51998,19.13,73940.3,13.91,-16.93,-17.83,0,*4B
1532498672.81,51999,19.13,73944.0,13.93,-17.87,-18.99,0,*48
1532498674.07,52000,19.13,73940.5,13.91,-17.55,-18.45,0,*4E
1532498675.32,52001,19.13,73942.8,13.91,-17.07,-18.07,0,*4E
1532498676.56,52002,19.13,73940.8,13.93,-16.89,-17.79,0,*4E
1532498677.81,52003,19.13,73934.3,13.91,-17.41,-18.41,0,*4C
1532498679.04,52004,19.13,73942.3,13.91,-16.93,-17.83,0,*44
1532498680.3,52005,19.13,73942.0,13.91,-16.79,-17.63,0,*4F
1532498681.53,52006,19.13,73946.0,13.93,-16.83,-17.79,0,*40
1532498682.79,52007,19.13,73946.0,13.93,-18.01,-18.93,0,*4E
1532498684.07,52008,19.13,73944.3,13.91,-17.03,-17.79,0,*45
1532498685.27,52009,19.13,73944.5,13.93,-16.89,-17.73,0,*4F
1532498686.51,52010,19.13,73946.8,13.93,-16.41,-17.21,0,*44
1532498687.74,52011,19.13,73946.3,13.97,-16.09,-16.93,0,*45
1532498689.02,52012,19.13,73950.0,13.95,-16.51,-17.25,0,*45
1532498690.25,52013,19.13,73944.8,13.97,-17.59,-18.45,0,*46
1532498691.45,52014,19.13,73946.8,13.97,-16.97,-17.87,0,*43
1532498692.65,52015,19.13,73946.0,13.97,-16.93,-17.69,0,*46
1532498693.91,52016,19.13,73946.0,13.97,-16.65,-17.41,0,*46
1532498695.17,52017,19.13,73944.8,13.97,-16.65,-17.59,0,*4E
1532498696.42,52018,19.13,73944.5,13.99,-16.93,-17.93,0,*40
1532498697.65,52019,19.13,73946.5,13.99,-17.35,-18.45,0,*48
1532498698.85,52020,19.13,73942.8,13.97,-16.93,-17.87,0,*40
1532498700.06,52021,19.13,73946.3,13.97,-16.97,-17.83,0,*41
1532498701.33,52022,19.13,73946.3,13.97,-17.45,-18.31,0,*4A
1532498702.61,52023,19.13,73944.0,13.95,-17.03,-17.97,0,*48
1532498703.84,52024,19.13,73946.0,13.99,-16.97,-17.49,0,*4C
1532498705.06,52025,19.13,73944.3,13.99,-16.97,-18.25,0,*48
1532498706.34,52026,19.13,73944.8,13.99,-17.41,-18.59,0,*4A
1532498707.59,52027,19.13,73944.5,13.99,-16.79,-17.55,0,*42
1532498708.85,52028,19.13,73942.3,13.97,-16.69,-17.55,0,*42
1532498710.05,52029,19.13,73942.3,13.97,-15.63,-16.97,0,*45
1532498711.25,52030,19.13,73942.8,13.97,-16.41,-17.73,0,*45
1532498712.48,52031,19.13,73944.8,13.95,-16.79,-18.21,0,*45
1532498713.71,52032,19.13,73944.0,13.97,-16.13,-17.31,0,*46
1532498715.0,52033,19.13,73944.8,13.99,-16.17,-17.11,0,*4F
1532498716.2,52034,19.13,73944.8,14.01,-17.69,-18.73,0,*4D
1532498717.48,52035,19.13,73950.3,13.99,-17.11,-17.97,0,*40
1532498718.71,52036,19.13,73950.0,13.99,-17.83,-18.83,0,*42
1532498719.95,52037,19.13,73948.5,13.99,-17.93,-19.07,0,*4F
1532498721.18,52038,19.13,73948.8,13.97,-17.87,-18.89,0,*4C
1532498722.43,52039,19.13,73942.8,13.99,-16.89,-17.93,0,*48
1532498723.68,52040,19.13,73946.5,13.99,-17.49,-18.55,0,*4E
1532498724.91,52041,19.13,73940.5,13.97,-17.41,-18.17,0,*4F
1532498726.12,52042,19.13,73938.5,13.97,-16.83,-17.83,0,*41
1532498727.35,52043,19.13,73936.5,13.97,-17.59,-18.73,0,*46
1532498728.6,52044,19.13,73944.8,13.99,-17.21,-18.17,0,*42
1532498729.83,52045,19.13,73940.0,14.01,-17.25,-18.41,0,*42
1532498731.03,52046,19.13,73946.0,13.97,-18.25,-19.47,0,*41
1532498732.26,52047,19.13,73946.5,13.97,-16.97,-18.01,0,*44
1532498733.49,52048,19.13,73948.8,13.97,-17.17,-18.21,0,*40
1532498734.74,52049,19.13,73944.8,13.99,-17.07,-18.17,0,*4B
1532498735.99,52050,19.13,73944.8,13.99,-17.97,-19.03,0,*4E
1532498737.23,52051,19.13,73950.0,13.99,-18.69,-19.91,0,*4A
1532498738.49,52052,19.13,73950.8,13.95,-20.43,-21.67,0,*44
1532498739.71,52053,19.13,73944.3,13.95,-18.07,-19.07,0,*43
1532498740.95,52054,19.13,73946.5,13.95,-16.97,-17.83,0,*41
1532498742.23,52055,19.13,73948.5,13.95,-16.65,-17.55,0,*46
1532498743.44,52056,19.13,73950.3,13.97,-16.83,-17.83,0,*44
1532498744.7,52057,19.13,73946.0,13.97,-17.03,-17.97,0,*49
1532498745.9,52058,19.13,73948.5,13.97,-16.41,-17.31,0,*4D
1532498747.14,52059,19.13,73948.3,13.97,-16.83,-17.97,0,*4E
1532498748.4,52060,19.13,73948.0,13.99,-16.03,-17.07,0,*4B
1532498749.62,52061,19.13,73948.5,14.01,-16.97,-17.93,0,*4C
1532498750.85,52062,19.13,73948.0,14.01,-16.65,-17.49,0,*45
1532498752.09,52063,19.13,73952.0,14.01,-17.21,-18.11,0,*47
1532498753.31,52064,19.13,73950.0,14.01,-16.89,-17.79,0,*42
1532498754.52,52065,19.13,73948.0,14.01,-17.83,-18.69,0,*46
1532498755.73,52066,19.13,73946.8,14.01,-17.83,-18.73,0,*4E
1532498756.95,52067,19.13,73948.3,14.01,-16.93,-17.79,0,*4A
1532498758.17,52068,19.13,73944.0,14.03,-16.83,-17.73,0,*4C
1532498759.39,52069,19.13,73946.5,14.03,-17.73,-18.69,0,*47
1532498760.65,52070,19.13,73944.5,14.01,-16.51,-17.21,0,*4F
1532498761.92,52071,19.13,73944.8,14.03,-16.69,-17.45,0,*45
1532498763.15,52072,19.13,73944.3,14.03,-17.35,-18.21,0,*43
1532498764.37,52073,19.13,73944.3,14.03,-16.93,-17.73,0,*47
1532498765.63,52074,19.13,73944.5,14.05,-17.17,-18.01,0,*41
1532498766.85,52075,19.13,73946.5,14.03,-16.59,-17.49,0,*4E
1532498768.08,52076,19.13,73946.5,14.05,-16.65,-17.69,0,*46
1532498769.34,52077,19.13,73944.3,14.05,-17.59,-18.35,0,*4F
1532498770.59,52078,19.13,73944.8,14.03,-16.41,-17.03,0,*44
1532498771.82,52079,19.13,73942.3,14.05,-16.83,-17.55,0,*4E
1532498773.07,52080,19.13,73942.8,14.05,-16.69,-17.25,0,*4B
1532498774.3,52081,19.13,73940.8,14.09,-15.85,-16.79,0,*4F
1532498775.58,52082,19.13,73942.8,14.11,-15.85,-17.11,0,*4A
1532498776.82,52083,19.13,73940.5,14.11,-15.49,-16.65,0,*49
1532498778.09,52084,19.13,73942.3,14.11,-15.01,-16.09,0,*48
1532498779.34,52085,19.13,73942.8,14.11,-15.71,-17.21,0,*45
1532498780.56,52086,19.13,73940.0,14.11,-15.63,-16.93,0,*4D
1532498781.81,52087,19.13,73936.5,14.13,-16.69,-17.93,0,*46
1532498783.01,52088,19.13,73942.3,14.13,-16.41,-17.31,0,*4B
1532498784.25,52089,19.13,73942.5,14.15,-16.31,-17.31,0,*4B
1532498785.53,52090,19.13,73940.0,14.15,-17.45,-18.55,0,*4C
1532498786.76,52091,19.13,73942.3,14.15,-17.49,-18.65,0,*42
1532498788.01,52092,19.13,73944.0,14.13,-16.69,-17.59,0,*44
1532498789.22,52093,19.13,73942.0,14.13,-16.45,-17.35,0,*41
1532498790.47,52094,19.13,73942.3,14.15,-16.13,-16.79,0,*4A
1532498791.72,52095,19.13,73942.3,14.15,-16.89,-17.79,0,*49
1532498793.0,52096,19.13,73942.5,14.15,-16.17,-17.17,0,*45
1532498794.23,52097,19.13,73942.8,14.17,-16.37,-17.17,0,*44
1532498795.47,52098,19.13,73942.3,14.19,-17.25,-18.17,0,*48
1532498796.75,52099,19.13,73936.8,14.19,-17.21,-18.31,0,*49
1532498797.99,52100,19.13,73942.5,14.17,-16.75,-17.59,0,*47
1532498799.23,52101,19.13,73940.8,14.19,-17.41,-18.41,0,*48
1532498800.5,52102,19.13,73938.3,14.19,-16.51,-17.25,0,*46
1532498801.76,52103,19.13,73942.0,14.21,-16.45,-17.41,0,*4B
1532498803.0,52104,19.13,73946.5,14.21,-16.97,-17.87,0,*49
1532498804.26,52105,19.13,73944.3,14.21,-16.79,-17.63,0,*42
1532498805.52,52106,19.13,73940.8,14.21,-16.45,-17.25,0,*4C
1532498806.75,52107,19.13,73942.3,14.21,-16.83,-17.69,0,*4F
1532498808.04,52108,19.13,73944.8,14.21,-16.69,-17.63,0,*4E
1532498809.24,52109,19.13,73940.0,14.23,-17.31,-18.21,0,*48
1532498810.48,52110,19.13,73940.8,14.23,-16.31,-17.17,0,*4B
1532498811.72,52111,19.13,73940.5,14.23,-16.79,-17.97,0,*4E
1532498812.98,52112,19.13,73942.0,14.23,-16.65,-17.79,0,*40
1532498814.21,52113,19.13,73940.0,14.23,-17.17,-18.07,0,*43
1532498815.43,52114,19.13,73940.8,14.23,-17.21,-18.25,0,*41
1532498816.69,52115,19.13,73942.3,14.25,-17.45,-18.49,0,*4E
1532498817.94,52116,19.13,73942.8,14.25,-18.01,-19.07,0,*49
1532498819.17,52117,19.13,73938.5,14.25,-16.75,-17.73,0,*48
1532498820.43,52118,19.13,73936.3,14.25,-16.59,-17.59,0,*41
1532498821.66,52119,19.13,73936.5,14.25,-16.89,-18.07,0,*49
1532498822.91,52120,19.13,73940.3,14.25,-17.63,-18.69,0,*4E
1532498824.2,52121,19.13,73946.0,14.25,-17.45,-18.31,0,*46
1532498825.46,52122,19.13,73946.0,14.25,-16.97,-18.01,0,*48
1532498826.74,52123,19.13,73942.3,14.25,-18.35,-19.41,0,*4A
1532498827.97,52124,19.13,73936.8,14.25,-17.87,-18.69,0,*40
1532498829.22,52125,19.13,73938.5,14.25,-17.93,-19.07,0,*4D
1532498830.45,52126,19.13,73940.0,14.23,-17.45,-18.21,0,*46
1532498831.66,52127,19.13,73936.3,14.23,-18.69,-19.91,0,*4C
1532498832.91,52128,19.13,73932.3,14.23,-17.93,-18.89,0,*41
1532498834.11,52129,19.13,73936.5,14.23,-17.35,-18.41,0,*48
1532498835.37,52130,19.13,73944.8,14.21,-17.11,-18.11,0,*41
1532498836.6,52131,19.13,73942.8,14.23,-17.59,-18.73,0,*4A
1532498837.87,52132,19.13,73938.5,14.21,-17.63,-18.59,0,*4A
1532498839.1,52133,19.13,73936.8,14.21,-17.69,-18.79,0,*43
1532498840.36,52134,19.13,73936.0,14.21,-17.41,-18.25,0,*47
1532498841.59,52135,19.13,73936.5,14.23,-17.17,-18.21,0,*43
1532498842.87,52136,19.13,73936.5,14.25,-16.51,-17.63,0,*4C
1532498844.07,52137,19.13,73938.5,14.23,-17.35,-18.25,0,*45
1532498845.3,52138,19.13,73940.8,14.23,-18.89,-19.95,0,*48
1532498846.55,52139,19.13,73944.0,14.21,-18.79,-19.81,0,*41
1532498847.81,52140,19.13,73938.3,14.21,-19.85,-20.93,0,*44
1532498849.02,52141,19.13,73934.5,14.17,-19.07,-19.91,0,*42
1532498850.23,52142,19.13,73934.0,14.17,-17.79,-18.79,0,*41
1532498851.48,52143,19.13,73942.0,14.19,-17.41,-18.41,0,*4E
1532498852.76,52144,19.13,73938.8,14.19,-17.25,-18.31,0,*4C
1532498854.01,52145,19.13,73940.5,14.17,-17.45,-18.59,0,*4B
1532498855.26,52146,19.13,73940.3,14.19,-16.59,-17.55,0,*49
1532498856.49,52147,19.13,73936.5,14.19,-19.51,-20.73,0,*4F
1532498857.74,52148,19.13,73938.0,14.19,-17.55,-18.45,0,*44
1532498858.98,52149,19.13,73940.3,14.19,-17.97,-19.03,0,*48
1532498860.19,52150,19.13,73936.0,14.17,-18.17,-19.13,0,*48
1532498861.44,52151,19.13,73938.3,14.17,-18.59,-19.57,0,*43
1532498862.7,52152,19.13,73926.3,14.19,-19.47,-20.53,0,*4E
1532498863.92,52153,19.13,73936.0,14.13,-17.63,-18.65,0,*43
1532498865.12,52154,19.13,73934.5,14.13,-17.83,-19.13,0,*4A
1532498866.37,52155,19.13,73926.3,14.15,-19.03,-20.19,0,*4B
1532498867.61,52156,19.13,73930.5,14.13,-18.41,-19.57,0,*49
1532498868.84,52157,19.06,73930.3,14.11,-19.17,-20.29,0,*4B
1532498870.05,52158,19.13,73932.3,14.09,-18.69,-19.95,0,*48
1532498871.24,52159,19.13,73932.0,14.09,-20.25,-21.63,0,*48
1532498872.48,52160,19.13,73938.0,14.05,-19.23,-20.43,0,*41
1532498873.73,52161,19.13,73940.0,14.03,-18.21,-19.27,0,*4D
1532498874.96,52162,19.13,73942.5,14.05,-18.21,-19.41,0,*48
1532498876.18,52163,19.13,73940.3,14.05,-17.59,-18.65,0,*4E
1532498877.38,52164,19.13,73940.0,14.05,-17.31,-18.21,0,*47
1532498878.61,52165,19.13,73940.8,14.09,-16.97,-18.01,0,*45
1532498879.83,52166,19.13,73940.8,14.09,-18.89,-19.95,0,*4B
1532498881.03,52167,19.13,73940.0,14.09,-17.87,-19.03,0,*44
1532498882.25,52168,19.13,73938.3,14.09,-17.21,-18.25,0,*42
1532498883.45,52169,19.13,73936.3,14.09,-17.35,-18.41,0,*44
1532498884.64,52170,19.06,73936.5,14.09,-17.83,-19.03,0,*46
1532498885.87,52171,19.13,73934.8,14.09,-17.49,-18.55,0,*43
1532498887.08,52172,19.13,73938.0,14.09,-19.17,-20.39,0,*44
1532498888.3,52173,19.06,73934.3,14.09,-17.69,-18.59,0,*4F
1532498889.52,52174,19.06,73938.3,14.05,-17.31,-18.31,0,*47
1532498890.74,52175,19.13,73940.0,14.09,-17.21,-18.25,0,*4E
1532498891.94,52176,19.13,73936.5,14.09,-17.87,-19.03,0,*44
1532498893.19,52177,19.06,73938.8,14.09,-16.51,-17.41,0,*47
1532498894.47,52178,19.06,73936.8,14.11,-19.23,-20.53,0,*4C
1532498895.7,52179,19.13,73936.3,14.09,-18.89,-20.09,0,*4A